[[{"header":{"parameterUnit":"m.s-1","parameterCategory":1,"la1":30.2991,"la2":30.254,"lo1":-89.0895,"lo2":-89.0444,"dx":0.0017,"dy":0.0017,"nx":28,"ny":28,"refTime":"2023-02-12T09:00:00:Z","depth":0,"parameterNumber":2,"parameterNumberName":"U-component_of_WINDS"},"data":[0,0,0,0,0,0,0,0,0,0,0,0,0,0,0,0,0,0,0,0,0,0,0,0,0,0,0,0,0,0,0,0,0,0,0,0,0,0,0,0,0,0,0,0,0,0,0,0,0,0,0,0,0,0,0,0,0,0,3.9863,3.9864,0,3.9946,3.9947,3.9948,3.9871,3.9868,3.9865,3.9862,3.9951,3.9956,3.9961,0,0,0,0,0,0,0,0,0,0,0,0,0,3.964,3.9645,3.9863,3.9864,3.9865,3.9946,3.9947,3.9948,3.9871,3.9868,3.9864,3.986,3.9949,3.9955,3.9961,0,0,0,0,0,0,0,0,0,0,0,0,0,3.9732,3.9646,3.9863,3.9836,3.9834,3.9946,3.9947,3.9949,3.9872,3.9867,3.9863,3.9858,3.9947,3.9954,3.9962,4.0105,0,0,3.9986,3.999,0,0,0,0,0,0,0,0,3.9727,3.974,3.9839,3.9838,3.9837,3.9893,3.9901,4.0001,3.9873,3.9858,3.9861,3.9856,3.9935,3.9944,3.997,4.0109,4.0113,3.9987,3.9992,3.9995,3.9998,0,0,0,0,0,0,0,3.9721,3.9736,3.9896,3.984,3.9839,3.9821,3.9829,3.992,3.9922,3.9859,3.9853,3.9864,3.9934,3.9963,3.9972,4.0114,3.9987,3.9994,3.9999,4.0002,4.0377,4.0382,0,0,0,0,0,0,3.9717,3.9731,3.9893,3.9898,3.9769,3.9829,3.9838,3.988,3.9921,3.9923,3.9868,3.986,3.9951,3.9962,3.9974,4.0146,3.9995,4.0003,4.0007,4.0372,4.0378,4.0383,0,0,0,0,0,0,3.9712,3.9732,3.989,3.9813,3.9832,3.9838,3.9886,3.9884,3.9912,3.9928,3.9928,3.9897,3.9948,3.9963,4.0073,4.0148,4.0006,4.0013,4.0365,4.0373,4.0381,4.0489,0,0,0,0,0,0,3.9706,3.9731,3.9784,3.9815,3.9836,3.9987,3.989,3.9889,3.9926,3.9917,3.9955,3.9957,3.9946,4.0062,4.0081,4.0156,4.002,4.0359,4.0369,4.0378,4.0479,4.05,4.0518,0,0,0,0,0,3.9698,3.9812,3.9787,3.9807,3.9903,3.9991,4.0003,3.9987,3.9932,3.9987,3.9997,3.9956,4.0136,4.0074,4.0095,4.0173,4.0354,4.0366,4.0377,4.047,4.0496,4.0517,0,0,0,0,0,0,3.979,3.9815,3.9788,3.9915,3.9951,3.9978,4.0046,4.0014,4.0068,4.0057,4.0036,4.0045,4.0162,4.0178,4.0108,4.0315,4.0236,4.0253,4.03,4.0324,4.0343,4.0338,4.0026,0,0,0,0,0,3.9825,3.9893,3.9911,4.0021,4.0041,4.004,4.0078,4.0062,4.01,4.0115,4.0133,4.0172,4.0238,4.0281,4.0342,4.048,4.0489,4.0545,4.0564,4.058,4.0595,4.0671,4.0697,4.0422,4.0422,4.0422,0,0,3.9898,3.992,3.9964,4.004,4.0066,4.0139,4.0054,4.0134,4.0188,4.0128,4.0233,4.0248,4.029,4.0415,4.0471,4.0432,4.0673,4.0595,4.0607,4.0614,4.0686,4.0712,4.0735,4.043,4.0428,4.0427,0,0,4.0068,4.009,4.0185,4.0213,4.0254,4.0253,4.0276,4.0308,4.0315,4.042,4.0377,4.0441,4.0554,4.0586,4.0618,4.0801,4.0766,4.0821,4.0923,4.0997,4.1019,4.1038,4.1106,4.113,4.0836,4.0836,4.0837,0,4.0154,4.026,4.0238,4.0322,4.0357,4.0305,4.0402,4.0431,4.049,4.0517,4.0472,4.0613,4.0638,4.0771,4.0816,4.0842,4.0869,4.0818,4.1017,4.1036,4.1054,4.1118,4.1144,4.0843,4.0842,4.0842,4.0841,0,4.0365,4.0439,4.0511,4.0569,4.0612,4.0702,4.0696,4.0742,4.0723,4.0728,4.0836,4.0864,4.093,4.096,4.0942,4.1092,4.1066,4.102,4.0941,4.1087,4.1147,4.1172,4.0852,4.085,4.0848,4.0846,0,0,4.0596,4.0641,4.0668,4.0694,4.0736,4.0793,4.0881,4.0945,4.0987,4.103,4.1105,4.1201,4.1159,4.1195,4.118,4.1245,4.1391,4.1191,4.1192,4.1229,4.156,4.1596,4.1625,4.1367,4.1372,4.1375,4.1557,0,4.077,4.0921,4.0905,4.1051,4.112,4.1072,4.1148,4.1183,4.119,4.1251,4.1258,4.1328,4.1265,4.1287,4.1349,4.136,4.1458,4.1347,4.1439,4.1442,4.1432,4.1656,4.1694,4.1864,4.158,4.1584,4.1587,0,4.0992,4.1042,4.1195,4.1227,4.1255,4.1325,4.1383,4.1441,4.148,4.148,4.152,4.1494,4.1585,4.1502,4.1628,4.1553,4.1589,4.16,4.1607,4.1616,4.1525,4.1674,4.1918,4.1944,4.1623,4.162,4.1618,0,4.1149,4.1254,4.1359,4.1383,4.1422,4.1473,4.1491,4.1525,4.1565,4.1616,4.1643,4.1704,4.1738,4.1787,4.1779,4.1719,4.1907,4.1824,4.1912,4.1913,4.1955,4.1953,4.2211,4.1976,4.1975,4.1975,4.1974,0,4.1346,4.1442,4.143,4.1496,4.1602,4.1582,4.1689,4.1701,4.1732,4.18,4.1761,4.1826,4.181,4.1875,4.1869,4.1975,4.1991,4.1995,4.1993,4.2,4.2,4.2025,4.2014,4.1981,4.198,4.1979,4.1978,0,4.1539,4.1535,4.1647,4.1675,4.1684,4.1762,4.1786,4.1848,4.1851,4.1938,4.1957,4.1962,4.2037,4.2033,4.2117,4.2113,4.2244,4.2227,4.2231,4.2229,4.2318,4.231,4.2603,4.2641,4.2378,4.2381,4.2383,0,4.1666,4.1739,4.1774,4.1816,4.1838,4.1906,4.1947,4.1931,4.1975,4.2025,4.2082,4.2152,4.2208,4.2329,4.2342,4.2406,4.2392,4.249,4.2401,4.2407,4.2396,4.2393,4.2401,4.2508,4.2511,4.2513,4.2515,0,4.1893,4.1887,4.1946,4.2006,4.2055,4.2101,4.2143,4.2181,4.2169,4.2221,4.2296,4.2339,4.2425,4.2496,4.2558,4.2579,4.2547,4.2543,4.2567,4.2576,4.2576,4.258,4.2281,4.2537,4.2534,4.2533,4.2532,4.2531,4.2059,4.2121,4.2156,4.2224,4.2254,4.2294,4.2354,4.2364,4.2426,4.2495,4.2481,4.2566,4.2604,4.2684,4.271,4.2778,4.2743,4.2777,4.2787,4.2796,4.2807,4.2564,4.2788,4.2788,4.2787,4.2787,4.2786,0,4.2285,4.2305,4.2367,4.2427,4.2481,4.2444,4.2488,4.2537,4.2612,4.2649,4.2704,4.2792,4.2861,4.2879,4.2945,4.2996,4.2983,4.3014,4.3012,4.3018,4.2833,4.2807,4.3024,4.3024,4.3024,4.3024,4.3024,4.3024,4.2409,4.2514,4.2513,4.2633,4.2652,4.2734,4.2764,4.2801,4.2831,4.293,4.2987,4.2997,4.3028,4.3096,4.3159,4.3162,4.319,4.3228,4.3226,4.3054,4.303,4.3008,4.2983,4.3233,4.3234,4.3405,4.3406,4.3408]},{"header":{"parameterUnit":"m.s-1","parameterCategory":1,"la1":30.2991,"la2":30.254,"lo1":-89.0895,"lo2":-89.0444,"dx":0.0017,"dy":0.0017,"nx":28,"ny":28,"refTime":"2023-02-12T09:00:00:Z","depth":0,"parameterNumber":3,"parameterNumberName":"V-component_of_WINDS"},"data":[0,0,0,0,0,0,0,0,0,0,0,0,0,0,0,0,0,0,0,0,0,0,0,0,0,0,0,0,0,0,0,0,0,0,0,0,0,0,0,0,0,0,0,0,0,0,0,0,0,0,0,0,0,0,0,0,0,0,-2.7972,-2.7973,0,-2.8122,-2.8124,-2.8125,-2.816,-2.8159,-2.8158,-2.8157,-2.8312,-2.8317,-2.8322,0,0,0,0,0,0,0,0,0,0,0,0,0,-2.7716,-2.7721,-2.7971,-2.7973,-2.7975,-2.8122,-2.8124,-2.8126,-2.816,-2.8159,-2.8158,-2.8156,-2.8311,-2.8317,-2.8323,0,0,0,0,0,0,0,0,0,0,0,0,0,-2.7843,-2.7722,-2.7971,-2.801,-2.8015,-2.8121,-2.8124,-2.8126,-2.816,-2.8159,-2.8157,-2.8156,-2.8309,-2.8316,-2.8324,-2.8402,0,0,-2.8347,-2.835,0,0,0,0,0,0,0,0,-2.7836,-2.7852,-2.8002,-2.8007,-2.8013,-2.8121,-2.8091,-2.8219,-2.8161,-2.8105,-2.8157,-2.8155,-2.825,-2.8262,-2.8294,-2.841,-2.8416,-2.8348,-2.8352,-2.8356,-2.8358,0,0,0,0,0,0,0,-2.7827,-2.7846,-2.8031,-2.8004,-2.8011,-2.8021,-2.8037,-2.8115,-2.8185,-2.811,-2.8113,-2.813,-2.8252,-2.8286,-2.8298,-2.8419,-2.8347,-2.8354,-2.8359,-2.8362,-2.8609,-2.861,0,0,0,0,0,0,-2.7811,-2.7838,-2.8026,-2.8036,-2.7919,-2.8026,-2.8045,-2.8088,-2.8184,-2.8197,-2.8131,-2.8131,-2.8274,-2.8289,-2.8303,-2.8403,-2.8356,-2.8363,-2.8367,-2.8607,-2.8609,-2.8611,0,0,0,0,0,0,-2.7805,-2.7827,-2.802,-2.7938,-2.7963,-2.8033,-2.8081,-2.8092,-2.8125,-2.82,-2.8213,-2.8153,-2.8273,-2.8293,-2.8378,-2.8409,-2.8366,-2.8373,-2.8604,-2.8607,-2.861,-2.8602,0,0,0,0,0,0,-2.7798,-2.7825,-2.7855,-2.7938,-2.7967,-2.8091,-2.8083,-2.8096,-2.8138,-2.814,-2.8224,-2.8236,-2.8274,-2.8366,-2.8385,-2.8419,-2.8379,-2.8602,-2.8606,-2.8609,-2.86,-2.8604,-2.8608,0,0,0,0,0,-2.7789,-2.7847,-2.7856,-2.7879,-2.8006,-2.8093,-2.811,-2.8151,-2.8141,-2.8172,-2.822,-2.8233,-2.8402,-2.8375,-2.8397,-2.8433,-2.86,-2.8605,-2.8609,-2.8598,-2.8603,-2.8608,0,0,0,0,0,0,-2.7765,-2.7858,-2.787,-2.7956,-2.8016,-2.8098,-2.8139,-2.8156,-2.822,-2.8219,-2.8268,-2.8287,-2.8369,-2.841,-2.8377,-2.8515,-2.8501,-2.851,-2.8485,-2.8491,-2.8495,-2.8484,-2.8386,0,0,0,0,0,-2.777,-2.7832,-2.791,-2.7979,-2.8009,-2.8069,-2.8108,-2.8135,-2.82,-2.8225,-2.8279,-2.8342,-2.8409,-2.8452,-2.8519,-2.8606,-2.8626,-2.8642,-2.8646,-2.8649,-2.8656,-2.8707,-2.8715,-2.8626,-2.8625,-2.8625,0,0,-2.7781,-2.7839,-2.7875,-2.7976,-2.8026,-2.809,-2.809,-2.8157,-2.8206,-2.8236,-2.8319,-2.8362,-2.8435,-2.8522,-2.8563,-2.8558,-2.8686,-2.8655,-2.8656,-2.8662,-2.8712,-2.8721,-2.8728,-2.8629,-2.8628,-2.8627,0,0,-2.7833,-2.7883,-2.7946,-2.7997,-2.8072,-2.8112,-2.8127,-2.8207,-2.8237,-2.8321,-2.8346,-2.8405,-2.8519,-2.8571,-2.8612,-2.8686,-2.8701,-2.8706,-2.8728,-2.8777,-2.8784,-2.879,-2.8817,-2.8826,-2.8713,-2.8713,-2.8713,0,-2.7837,-2.7933,-2.7977,-2.8044,-2.8088,-2.8119,-2.8184,-2.8231,-2.8324,-2.8354,-2.8347,-2.8493,-2.8544,-2.8644,-2.8663,-2.8695,-2.8715,-2.8696,-2.8779,-2.8786,-2.8793,-2.8819,-2.8829,-2.8713,-2.8713,-2.8713,-2.8713,0,-2.7935,-2.8002,-2.8044,-2.8133,-2.8183,-2.8248,-2.8303,-2.8347,-2.8371,-2.8412,-2.8499,-2.8562,-2.8642,-2.8668,-2.8691,-2.8772,-2.8767,-2.8769,-2.8756,-2.8801,-2.8826,-2.8837,-2.8713,-2.8713,-2.8713,-2.8713,0,0,-2.7975,-2.8089,-2.8104,-2.8145,-2.8232,-2.8285,-2.8353,-2.8431,-2.8468,-2.8532,-2.8591,-2.8688,-2.8692,-2.8738,-2.8768,-2.8811,-2.8867,-2.8809,-2.8811,-2.8817,-2.8961,-2.8959,-2.8969,-2.8878,-2.888,-2.8882,-2.8955,0,-2.8038,-2.8159,-2.8201,-2.8302,-2.8365,-2.8396,-2.8456,-2.8516,-2.8556,-2.8617,-2.8662,-2.873,-2.8729,-2.8757,-2.8801,-2.8851,-2.8896,-2.8846,-2.8934,-2.8936,-2.8914,-2.8983,-2.898,-2.9046,-2.8965,-2.8967,-2.8968,0,-2.8127,-2.8192,-2.8299,-2.8379,-2.8407,-2.846,-2.8536,-2.8593,-2.8662,-2.8689,-2.8742,-2.8769,-2.8843,-2.8826,-2.8928,-2.8893,-2.8932,-2.8962,-2.8966,-2.8975,-2.8954,-2.8994,-2.9068,-2.9078,-2.8984,-2.8983,-2.8982,0,-2.8146,-2.8261,-2.834,-2.8374,-2.8469,-2.8506,-2.8547,-2.8615,-2.866,-2.8727,-2.8757,-2.8831,-2.8872,-2.893,-2.8977,-2.896,-2.9076,-2.9062,-2.91,-2.9099,-2.9123,-2.912,-2.9204,-2.9148,-2.9148,-2.9147,-2.9147,0,-2.8211,-2.8275,-2.835,-2.8398,-2.8472,-2.8521,-2.8592,-2.8636,-2.8697,-2.8755,-2.8787,-2.8841,-2.89,-2.8963,-2.9,-2.908,-2.9098,-2.9123,-2.9132,-2.912,-2.9116,-2.9145,-2.9142,-2.915,-2.915,-2.9149,-2.9149,0,-2.8244,-2.8296,-2.8385,-2.8468,-2.8491,-2.8541,-2.8613,-2.8662,-2.8705,-2.8779,-2.8799,-2.8866,-2.8941,-2.8994,-2.9091,-2.9117,-2.9203,-2.9212,-2.9179,-2.9184,-2.9219,-2.9215,-2.9323,-2.9341,-2.9273,-2.9273,-2.9274,0,-2.8282,-2.8332,-2.8422,-2.8463,-2.8504,-2.8571,-2.8617,-2.8668,-2.8715,-2.8799,-2.8838,-2.8916,-2.898,-2.91,-2.9158,-2.9232,-2.9243,-2.9276,-2.9255,-2.9241,-2.9244,-2.924,-2.9246,-2.9279,-2.928,-2.928,-2.928,0,-2.8344,-2.8368,-2.8433,-2.8508,-2.8562,-2.8624,-2.8685,-2.8718,-2.878,-2.8831,-2.8909,-2.8959,-2.9059,-2.9136,-2.9216,-2.926,-2.9281,-2.9287,-2.93,-2.9288,-2.9267,-2.9279,-2.9188,-2.9284,-2.9284,-2.9283,-2.9283,-2.9283,-2.8382,-2.8428,-2.8498,-2.857,-2.8622,-2.868,-2.873,-2.878,-2.8845,-2.893,-2.8956,-2.9037,-2.9108,-2.9218,-2.9263,-2.9328,-2.9326,-2.9344,-2.9349,-2.9353,-2.9352,-2.9257,-2.9343,-2.9343,-2.9343,-2.9343,-2.9343,0,-2.8446,-2.8493,-2.8558,-2.8644,-2.8701,-2.8716,-2.8786,-2.8833,-2.8903,-2.8967,-2.903,-2.912,-2.9196,-2.926,-2.9339,-2.9378,-2.939,-2.9397,-2.9394,-2.9404,-2.935,-2.9331,-2.9386,-2.9386,-2.9386,-2.9386,-2.9386,-2.9386,-2.8485,-2.8565,-2.8598,-2.8705,-2.8752,-2.8831,-2.887,-2.8923,-2.8975,-2.9073,-2.9136,-2.9178,-2.9243,-2.9326,-2.9397,-2.9414,-2.9441,-2.9446,-2.9466,-2.9413,-2.9408,-2.9403,-2.9386,-2.9452,-2.9452,-2.9515,-2.9516,-2.9516]}]]